Wind_Speed
27 26 25 23 22 22 20 19 19 19 16 14 12 11 10 9 7 7 7 7 6 6 6 6 6 6 6 6 7 6 5 4 3 4 4 4 5 6 6 7 8 7 8 8
28 27 26 26 25 23 22 21 21 20 17 15 14 13 12 11 9 9 8 8 8 7 6 7 7 8 7 8 8 8 6 4 4 4 4 4 4 5 6 7 8 9 8 8
29 29 28 27 26 25 24 23 22 21 19 17 16 15 14 13 12 11 10 10 9 9 8 8 8 8 9 9 10 9 8 7 6 6 7 7 6 6 7 7 8 9 9 10
32 31 29 28 27 26 26 25 24 22 21 20 18 17 17 15 14 13 12 11 11 11 10 10 10 10 10 11 11 11 10 8 8 8 9 9 8 7 7 7 8 8 9 9
33 31 30 29 28 28 28 26 25 24 23 23 21 19 19 17 16 15 13 13 13 13 12 12 12 12 12 13 12 12 11 10 10 10 9 9 9 9 8 8 9 10 9 9
34 32 32 30 30 29 29 27 26 25 25 25 23 21 20 19 16 16 15 15 14 14 14 14 14 14 14 14 13 13 12 12 11 11 10 10 10 11 10 9 10 11 11 10
34 33 32 31 31 30 29 28 27 27 27 25 24 23 21 20 17 17 17 16 15 15 15 15 14 14 14 14 14 13 12 12 11 12 12 12 11 11 11 11 11 12 12 12
34 34 32 31 31 30 29 29 28 25 23 24 25 24 22 20 18 18 18 17 16 15 15 15 15 14 14 14 13 12 12 13 12 13 13 13 13 12 12 13 12 12 13 13
34 34 32 31 31 31 30 30 29 28 26 23 25 23 22 20 18 18 18 18 16 16 16 16 16 14 14 14 13 13 14 14 13 13 13 13 13 12 12 12 12 12 12 13
34 34 33 32 32 32 31 30 30 29 27 24 24 23 21 20 19 19 19 18 17 17 16 16 16 15 15 14 14 15 16 15 15 14 14 13 14 14 13 13 13 13 14 14
33 33 33 32 32 31 30 31 30 29 28 23 20 21 21 19 19 19 19 19 18 17 17 17 17 16 16 16 15 16 16 14 15 15 15 14 14 14 14 14 14 14 15 14
32 32 32 32 31 31 30 30 29 29 28 25 21 20 21 19 19 19 19 19 18 18 17 17 17 17 17 17 16 16 16 15 15 15 15 15 15 15 14 14 14 14 15 16
32 32 31 31 31 31 30 30 29 28 27 25 22 21 21 19 19 19 19 18 17 17 17 17 17 17 17 16 16 16 16 16 15 15 15 15 15 15 14 14 14 14 15 15
31 31 29 27 28 29 29 28 27 27 26 24 22 20 21 19 19 18 18 18 17 17 17 17 16 16 16 16 16 16 16 15 15 14 14 14 15 14 13 13 14 14 14 14
31 30 30 29 29 28 27 27 27 26 24 22 21 20 20 20 19 18 18 18 17 17 17 16 15 14 15 15 15 15 15 14 14 13 14 14 13 14 14 14 14 14 14 15
31 30 30 30 29 28 28 28 27 25 24 22 21 20 20 20 19 19 18 18 17 17 16 15 15 15 14 14 13 13 13 13 13 14 13 13 14 14 14 14 14 14 15 16
29 29 29 29 29 29 29 27 26 25 24 22 21 19 19 19 19 18 18 18 18 17 16 16 16 15 14 13 13 12 13 14 14 14 15 15 15 15 15 14 14 14 15 16
27 27 27 27 29 29 27 26 26 25 24 22 21 20 19 19 19 19 19 19 19 18 17 17 15 15 14 14 13 13 13 14 15 15 15 16 16 16 16 16 15 15 16 17
27 26 26 27 27 28 27 26 25 24 24 22 21 21 20 20 19 19 19 20 19 19 18 17 16 16 15 15 14 13 13 14 15 15 16 16 17 16 16 16 16 16 16 16
27 27 26 27 26 27 26 25 25 24 24 22 22 21 20 20 19 19 19 21 20 19 19 18 17 17 16 16 16 15 15 14 15 16 16 16 16 16 16 16 17 17 17 17
29 28 27 26 26 27 26 25 25 25 24 22 22 22 21 21 20 20 20 20 20 19 19 18 17 16 16 16 15 16 16 16 16 16 16 17 17 17 16 17 17 17 17 18
29 29 28 27 26 27 25 26 27 26 24 23 23 22 21 21 21 21 21 21 21 20 19 19 18 18 18 17 17 17 17 16 17 16 16 17 17 17 17 18 18 18 18 18
30 30 29 28 27 26 25 26 26 25 25 24 24 23 22 22 22 22 22 22 22 21 21 21 20 19 19 19 18 18 18 17 17 18 18 19 19 18 18 19 18 18 18 19
29 29 29 28 27 26 25 25 26 26 26 25 25 24 23 23 22 22 22 23 23 22 22 22 21 20 20 19 19 19 18 18 19 20 20 20 20 19 19 19 19 19 20 20
29 28 28 27 27 27 26 26 26 26 27 27 26 26 25 24 23 23 23 24 24 24 23 22 21 20 20 20 20 19 19 19 20 20 21 20 20 21 20 20 20 20 21 22
29 28 28 27 26 26 26 26 26 26 27 27 27 27 26 25 25 25 25 24 24 24 23 23 23 22 21 21 20 19 19 19 20 20 20 20 20 21 21 21 21 22 22 22
Wind_Direction
229 230 230 230 230 231 234 235 239 245 248 245 242 241 243 248 255 266 273 279 284 297 308 312 321 326 326 331 331 324 324 325 324 318 296 276 257 247 244 244 246 244 243 244
229 229 228 228 229 231 233 235 238 244 245 244 244 243 245 248 253 261 265 271 277 282 292 299 303 312 316 319 320 320 321 323 329 324 308 291 279 253 249 248 250 250 249 248
229 228 228 229 229 230 232 234 238 241 243 244 245 246 246 249 253 258 264 270 275 278 282 289 293 298 302 303 307 312 311 308 310 312 306 293 279 269 259 256 258 260 258 256
228 227 227 228 228 229 232 233 236 239 240 243 244 246 251 249 250 255 260 266 271 275 279 285 291 295 295 296 297 303 301 296 298 298 297 293 282 277 277 269 270 269 269 262
229 227 227 227 227 228 231 232 235 238 239 243 246 244 251 251 249 253 258 264 268 272 275 280 285 289 291 293 292 295 294 291 292 289 288 289 283 282 280 279 270 267 266 260
227 226 226 225 226 227 230 231 234 237 240 243 246 247 248 251 248 252 257 262 266 267 272 278 280 283 287 290 290 290 289 288 284 283 285 283 281 283 285 289 275 268 264 261
226 226 226 225 226 227 228 230 233 237 240 243 247 247 248 251 250 253 257 260 261 261 267 275 278 280 284 287 285 283 281 283 282 282 282 279 280 282 283 286 279 270 263 262
226 227 226 226 227 229 230 230 231 234 241 245 248 247 250 251 252 254 257 257 257 258 265 270 273 277 280 283 282 281 281 280 279 278 282 279 280 279 282 281 277 275 266 263
224 227 226 226 227 228 228 229 230 233 236 240 250 249 249 250 250 252 253 253 255 258 263 268 269 271 275 279 280 282 287 280 276 274 277 281 278 281 283 283 278 273 269 266
222 225 225 225 226 227 228 228 229 231 235 239 247 250 249 249 249 250 248 249 253 256 260 264 266 269 271 275 280 281 282 281 274 273 274 279 276 281 282 281 278 274 270 267
221 223 225 225 226 228 228 228 229 232 235 236 244 252 248 247 247 248 248 247 248 254 258 260 262 265 268 272 277 280 278 278 276 274 272 274 275 278 282 281 279 272 267 267
219 220 224 225 226 227 227 229 231 233 237 235 234 248 249 246 247 247 246 247 248 251 254 257 258 262 267 271 273 276 276 274 274 273 269 270 274 278 278 278 278 273 266 265
217 218 220 223 224 225 226 227 229 231 236 237 234 243 249 246 245 244 245 245 245 248 252 256 258 260 265 267 270 271 271 269 269 268 266 268 272 275 275 276 276 274 268 265
216 217 217 222 227 226 226 227 228 230 233 237 234 236 244 242 242 242 241 242 243 246 251 256 257 258 260 262 266 267 268 265 265 266 265 267 272 272 275 276 277 275 271 268
215 216 215 217 223 224 225 226 227 229 230 233 235 235 238 238 239 240 241 242 242 245 250 253 251 254 258 262 265 265 263 260 261 264 266 267 269 273 275 276 275 275 274 277
215 215 216 217 221 222 223 225 227 227 228 230 232 233 234 234 235 236 236 238 241 245 248 250 251 255 260 262 261 259 258 259 260 264 266 268 270 274 278 277 277 276 276 276
214 215 216 217 221 223 225 225 227 228 228 229 230 231 232 230 228 229 230 233 238 243 246 249 250 253 259 260 256 259 260 261 262 265 267 272 273 275 279 279 279 276 276 275
212 212 214 217 220 223 225 225 225 227 226 227 229 230 229 227 227 227 229 232 236 240 243 245 248 252 257 261 261 261 261 259 261 265 269 274 276 278 281 278 279 278 277 276
212 213 214 217 222 225 226 224 224 226 226 226 227 227 227 225 226 226 227 230 233 236 239 243 247 249 253 258 260 261 263 262 264 268 272 274 275 276 280 279 278 279 281 281
213 214 216 217 220 225 226 223 223 225 226 224 226 227 226 225 226 227 228 229 233 236 238 241 244 246 252 260 260 257 261 265 268 271 272 273 274 278 280 280 281 279 280 283
212 213 216 218 220 225 224 221 221 223 224 224 225 225 225 225 227 229 229 231 232 234 238 241 242 246 252 257 259 259 261 265 268 272 274 275 276 276 279 282 285 283 282 284
213 215 216 217 220 224 220 219 220 222 222 222 223 225 226 227 228 230 231 232 233 235 238 241 245 249 254 257 259 261 263 263 266 270 274 275 276 277 279 282 285 285 286 286
213 215 216 218 220 221 219 219 221 222 223 223 224 225 228 228 230 233 233 233 234 237 240 243 247 251 254 257 257 260 260 262 265 269 273 275 277 278 280 283 285 286 287 289
215 216 218 219 219 220 219 219 220 221 222 223 224 225 227 227 230 232 232 233 236 240 242 245 247 251 253 255 255 258 262 263 265 270 274 275 278 279 281 283 285 287 288 288
213 214 216 218 218 218 219 221 221 222 222 223 224 224 225 226 229 231 232 235 237 241 245 245 248 250 251 253 257 260 262 264 266 270 273 275 277 279 279 281 284 286 287 289
212 214 215 215 216 217 219 220 221 221 222 224 224 224 225 228 229 231 232 235 237 241 245 248 250 252 251 252 256 258 261 264 268 271 273 275 276 278 279 282 285 287 288 289
Height
5884 5888 5892 5896 5899 5902 5904 5907 5909 5910 5912 5914 5916 5918 5919 5919 5920 5920 5920 5920 5919 5919 5918 5918 5917 5916 5915 5914 5913 5912 5911 5910 5910 5909 5909 5908 5908 5908 5908 5909 5909 5909 5910 5911
5879 5883 5887 5890 5893 5897 5900 5903 5905 5907 5909 5911 5913 5915 5916 5917 5918 5918 5918 5918 5918 5918 5917 5917 5916 5915 5914 5913 5912 5911 5910 5909 5909 5908 5908 5907 5907 5907 5907 5907 5908 5908 5908 5909
5874 5878 5881 5885 5889 5892 5896 5899 5901 5903 5906 5908 5911 5913 5914 5915 5915 5916 5917 5917 5916 5916 5916 5916 5915 5914 5913 5912 5911 5910 5909 5909 5908 5907 5907 5906 5906 5905 5905 5906 5906 5907 5907 5907
5866 5871 5876 5880 5884 5888 5891 5894 5897 5899 5902 5904 5908 5910 5911 5912 5913 5914 5914 5914 5914 5914 5914 5914 5913 5913 5912 5911 5910 5909 5908 5907 5906 5906 5905 5905 5904 5904 5904 5904 5904 5905 5905 5905
5861 5866 5870 5874 5879 5883 5886 5889 5893 5895 5898 5901 5903 5907 5909 5908 5909 5911 5912 5912 5912 5912 5912 5912 5911 5911 5910 5909 5908 5907 5906 5905 5905 5904 5903 5903 5902 5902 5902 5902 5902 5902 5903 5903
5854 5860 5864 5869 5873 5877 5880 5885 5888 5891 5894 5897 5899 5902 5905 5905 5906 5908 5909 5909 5909 5909 5909 5909 5909 5908 5907 5906 5905 5905 5904 5903 5902 5902 5901 5901 5900 5900 5899 5899 5899 5900 5900 5900
5848 5853 5858 5863 5867 5871 5876 5881 5884 5887 5889 5892 5894 5897 5900 5900 5902 5904 5905 5905 5905 5906 5906 5906 5906 5905 5904 5904 5903 5902 5901 5901 5900 5899 5899 5898 5898 5897 5896 5896 5896 5896 5897 5898
5843 5848 5853 5858 5862 5866 5871 5876 5881 5884 5887 5889 5889 5892 5895 5896 5898 5899 5900 5901 5902 5902 5903 5903 5903 5902 5902 5901 5900 5899 5899 5898 5897 5897 5896 5896 5895 5894 5893 5893 5893 5893 5894 5895
5838 5843 5847 5852 5856 5861 5865 5869 5875 5878 5882 5885 5885 5887 5890 5891 5893 5894 5896 5897 5898 5899 5899 5900 5899 5899 5899 5898 5897 5897 5896 5895 5895 5894 5893 5893 5892 5892 5891 5891 5891 5891 5891 5892
5831 5836 5841 5846 5850 5854 5860 5864 5868 5872 5876 5880 5882 5883 5886 5887 5888 5890 5891 5892 5893 5894 5895 5896 5896 5896 5896 5895 5895 5894 5893 5892 5891 5891 5891 5890 5890 5890 5889 5889 5888 5888 5889 5889
5825 5831 5835 5840 5845 5849 5854 5859 5863 5867 5871 5876 5879 5881 5880 5882 5884 5885 5887 5888 5889 5890 5891 5891 5892 5892 5892 5892 5892 5891 5890 5889 5889 5888 5888 5888 5888 5887 5886 5886 5885 5885 5885 5886
5819 5825 5830 5835 5840 5844 5849 5853 5858 5862 5866 5870 5875 5879 5875 5877 5879 5880 5882 5883 5885 5886 5887 5887 5888 5888 5888 5888 5888 5887 5886 5886 5885 5884 5885 5885 5885 5884 5883 5883 5882 5882 5882 5882
5814 5819 5824 5829 5835 5839 5842 5847 5852 5856 5860 5864 5869 5874 5870 5872 5874 5876 5877 5879 5881 5882 5883 5883 5884 5884 5885 5884 5884 5883 5882 5882 5881 5881 5881 5881 5881 5881 5880 5879 5879 5878 5878 5878
5809 5814 5821 5827 5829 5833 5837 5842 5846 5851 5855 5859 5863 5867 5866 5868 5869 5871 5873 5875 5876 5877 5878 5879 5880 5880 5880 5880 5880 5879 5878 5878 5878 5878 5878 5878 5878 5877 5876 5876 5876 5875 5875 5875
5803 5809 5814 5819 5823 5828 5832 5837 5841 5845 5850 5854 5857 5860 5861 5863 5865 5867 5869 5870 5872 5873 5874 5875 5876 5876 5876 5876 5875 5875 5875 5875 5875 5875 5875 5874 5874 5874 5873 5872 5872 5872 5871 5871
5798 5804 5809 5814 5818 5822 5827 5831 5835 5840 5844 5848 5851 5854 5856 5858 5860 5862 5864 5866 5868 5869 5870 5871 5872 5872 5872 5872 5871 5871 5872 5872 5872 5872 5872 5872 5871 5871 5870 5869 5868 5868 5867 5867
5794 5800 5805 5809 5813 5817 5822 5826 5830 5835 5838 5843 5846 5849 5851 5853 5855 5858 5860 5862 5864 5865 5866 5867 5868 5869 5869 5868 5868 5868 5868 5868 5869 5869 5869 5868 5868 5868 5867 5866 5865 5864 5864 5863
5790 5795 5800 5805 5809 5813 5819 5821 5825 5829 5833 5837 5840 5843 5846 5848 5851 5853 5855 5857 5859 5861 5862 5863 5864 5865 5865 5865 5865 5865 5865 5865 5865 5865 5865 5865 5864 5864 5863 5862 5862 5861 5860 5859
5785 5790 5795 5800 5804 5808 5813 5817 5820 5824 5828 5832 5835 5838 5841 5844 5846 5849 5851 5853 5855 5857 5858 5859 5860 5861 5862 5862 5862 5862 5862 5862 5862 5862 5861 5861 5860 5860 5859 5858 5858 5857 5857 5856
5780 5785 5790 5794 5799 5803 5808 5812 5815 5820 5823 5827 5830 5833 5836 5839 5843 5845 5846 5848 5850 5852 5854 5855 5856 5857 5857 5858 5858 5858 5858 5858 5858 5858 5858 5857 5856 5856 5855 5855 5854 5853 5852 5852
5774 5779 5784 5789 5794 5798 5802 5806 5811 5816 5820 5822 5825 5828 5831 5834 5838 5840 5842 5844 5846 5848 5850 5851 5853 5854 5854 5855 5854 5854 5855 5855 5855 5854 5854 5854 5853 5852 5852 5851 5850 5849 5848 5847
5769 5774 5779 5783 5788 5794 5797 5801 5805 5809 5813 5816 5820 5823 5826 5829 5832 5835 5837 5839 5842 5843 5845 5847 5848 5849 5850 5850 5850 5851 5851 5851 5850 5850 5850 5850 5849 5849 5848 5847 5846 5845 5844 5842
5763 5769 5773 5779 5784 5787 5791 5795 5800 5804 5808 5811 5815 5818 5821 5824 5827 5829 5832 5834 5837 5839 5840 5842 5843 5844 5845 5845 5846 5847 5846 5846 5846 5846 5846 5846 5845 5844 5844 5843 5842 5840 5839 5838
5758 5763 5768 5773 5777 5782 5786 5790 5794 5798 5802 5806 5809 5813 5816 5819 5821 5824 5826 5829 5831 5833 5835 5837 5838 5839 5840 5840 5841 5841 5842 5842 5842 5842 5842 5841 5841 5840 5839 5838 5837 5836 5834 5833
5753 5757 5762 5767 5772 5776 5780 5784 5789 5792 5796 5800 5803 5807 5810 5813 5816 5818 5821 5823 5826 5828 5830 5831 5832 5833 5834 5835 5836 5836 5837 5837 5837 5837 5836 5836 5835 5835 5834 5833 5832 5831 5829 5828
5747 5752 5757 5762 5766 5771 5775 5779 5783 5786 5790 5794 5797 5801 5804 5807 5810 5812 5815 5817 5820 5822 5824 5825 5826 5827 5828 5829 5830 5831 5831 5832 5832 5831 5831 5830 5830 5829 5828 5827 5826 5824 5823 5822